Location: Unspecified
(0.0000°N, 0.0000°E)
Time: 20:49:34
(UTC+00:00)

Altair 2 - Pass Details

Date: 05 November 2024
Orbit: 1017 x 1126 km, 90.0° (Epoch: 03 December)

Event Time Altitude Azimuth Distance (km) Brightness Sun altitude
Exits shadow 03:37:18 24° 208° (SSW) 2,109 10.1 -30.3°
Drops below altitude 10° 03:39:53 10° 199° (SSW) 2,971 11.0 -29.6°
Sets 03:42:31 0° 194° (SSW) 3,918 11.7 -29.0°
